{"data":{"norad_id":43910,"intl_designator":"2018-112B","name":"YUNHAI-2 01B","alt_names":[],"object_type":"PAYLOAD","status":"ACTIVE","operator":null,"country":"PRC","launch_date":"2018-12-29","launch_site_code":"JSC","launch_vehicle":null,"mission":null,"orbit_class":"UNKNOWN","rcs_meters":null,"size_class":null,"mass_kg":null,"dimensions":null,"purposes":[],"wikipedia_slug":null,"has_3d_model":false,"image_url":null,"decayed_at":null,"tle_current":{"epoch":"2026-05-25T04:28:28.449696Z","epoch_age_seconds":66251,"freshness":"FRESH","line1":"1 43910U 18112B   26145.18644039  .00000306  00000+0  18342-3 0  9992","line2":"2 43910  50.0097 205.4862 0004923 147.9757 212.1458 14.29004729386957","mean_motion":14.29004729,"eccentricity":0.0004923,"inclination_deg":50.0097,"raan_deg":205.4862,"arg_perigee_deg":147.9757,"mean_anomaly_deg":212.1458,"bstar":0.00018342,"rev_number":38695,"period_min":100.76943559226,"perigee_km":791.52818071724,"apogee_km":798.59091003582,"semimajor_km":7173.1965453765,"source":"CELESTRAK","updated_at":"2026-05-25T13:37:55.927882Z"}}}